Miscellaneous Local Product
Issued by NWS Hastings, NE

Home | Current Version | Previous Version | Text Only | Print | Product List | Glossary Off
Versions: 1 2 3 4 5 6 7 8 9 10 11 12 13 14 15 16 17 18 19 20 21 22 23 24 25 26 27 28 29 30 31 32 33 34 35 36 37 38 39 40 41 42 43 44 45 46 47 48 49 50

000
AXUS43 KGID 301802
MISGRI

GID CWA HOURLY WEATHER ROUNDUP
NATIONAL WEATHER SERVICE HASTINGS NE
100 PM CDT MON MAY 30 2016

NOTE: "FAIR" INDICATES FEW OR NO CLOUDS BELOW 12,000 FEET WITH NO
SIGNIFICANT WEATHER AND/OR OBSTRUCTIONS TO VISIBILITY.

...SOUTH CENTRAL NEBRASKA...

CITY           SKY/WX    TMP DP  RH WIND       PRES   REMARKS
GRAND ISLAND   SUNNY     78  61  55 S9        29.96F
HASTINGS       SUNNY     78  61  55 S12G17    29.96F
KEARNEY        SUNNY     79  55  44 S9G16     29.96F
ORD            CLOUDY    79  57  46 SE10      29.93F
YORK           CLOUDY    79  57  47 S10       29.96F
AURORA         SUNNY     78  57  48 SW13      29.96F
LEXINGTON      SUNNY     77  56  47 S14       29.95F
HOLDREGE       SUNNY     76  54  45 S9        29.97F
HEBRON         CLOUDY    78  57  48 S10       29.97S

...NEBRASKA PANHANDLE...

CITY           SKY/WX    TMP DP  RH WIND       PRES   REMARKS
CHADRON        SUNNY     80  46  30 W12       29.88F
ALLIANCE       SUNNY     79  45  29 W14G20    29.91F
SCOTTSBLUFF    SUNNY     79  43  27 NW16      29.94F
SIDNEY         SUNNY     79  44  28 SW10      29.96F

...WESTERN AND NORTH CENTRAL NEBRASKA...

CITY           SKY/WX    TMP DP  RH WIND       PRES   REMARKS
VALENTINE      SUNNY     78  52  40 S18       29.88F
AINSWORTH      CLOUDY    76  54  46 S16       29.90F
ONEILL         MOSUNNY   75  57  54 S6        29.93F
BROKEN BOW     SUNNY     77  56  48 S10       29.94F
IMPERIAL       SUNNY     74  56  53 S14       29.94F
NORTH PLATTE   SUNNY     77  55  46 S9        29.93F
MCCOOK         SUNNY     78  56  46 S13       29.94F

...EASTERN NEBRASKA...

CITY           SKY/WX    TMP DP  RH WIND       PRES   REMARKS
NORFOLK        CLOUDY    80  57  45 SE15      29.93F
SO SIOUX CITY  PTSUNNY   84  59  42 SE14      29.93F
TEKAMAH        PTSUNNY   83  53  35 S12       29.94F
COLUMBUS       PTSUNNY   82  57  42 SE13      29.95F
ALBION         PTSUNNY   78  58  51 SE12G17   29.95F
OMAHA EPPLEY   CLOUDY    82  60  47 S7        29.96F
OFFUTT AFB     MOSUNNY   83  63  51 S6        29.95F
MILLARD        MOSUNNY   81  61  50 SE3       29.96F
LINCOLN        MOSUNNY   82  61  48 S12       29.96F
NEBRASKA CITY  MOSUNNY   82  61  48 SW9G16    29.98F
BEATRICE       SUNNY     81  64  55 S9G16     29.97F
FALLS CITY     SUNNY     84  66  54 S10       29.97F

...NORTHERN KANSAS...

CITY           SKY/WX    TMP DP  RH WIND       PRES   REMARKS
GOODLAND       SUNNY     75  56  51 S13       29.96F
HILL CITY      SUNNY     82  54  37 S18       29.96F
NORTON         CLEAR     81  43  26 S17G23    29.94F
PHILLIPSBURG   SUNNY     81  54  39 S13       29.96F
SMITH CENTER   SUNNY     75  59  57 S14       29.98F
BELOIT         SUNNY     79  61  53 S8        29.97F
HAYS           SUNNY     79  57  47 S14G22    29.98F
RUSSELL        SUNNY     78  60  53 S15       29.97F
CONCORDIA      CLOUDY    77  59  53 S10       29.98F
SALINA         PTSUNNY   82  63  52 S10       29.99F
TOPEKA           N/A     83  64  52 S12       29.99F



USA.gov is the U.S. government's official web portal to all federal, state and local government web resources and services.